sat.trackr.live / text

‹ back to catalog

STARLINK-34288

NORAD 64673 · 2025-139K

PAYLOAD ACTIVE UNKNOWN

§ Identity

Operator
Country
US
Launch date
2025-06-28
Launch site
AFETR
Launch vehicle
Mass (kg)
RCS (m²)

Purposes: comms

External: N2YO · Heavens-Above · Gunter

§ Orbital elements

Epoch: 2026-05-25T03:35:01.419072Z

Period
93.85 min
Inclination
53.1593°
Eccentricity
0.0001256
Mean motion
15.34409693 rev/d
Perigee alt
461.8 km
Apogee alt
463.5 km
Semi-major
6,840.8 km
B*
7.1320e-4
RAAN
130.9586°
Arg perigee
98.8024°
Mean anomaly
261.3121°
Rev number
5,200

§ Raw data

STARLINK-342881 64673U 25139K   26145.14932198  .00023804  00000+0  71320-3 0  99932 64673  53.1593 130.9586 0001256  98.8024 261.3121 15.34409693 52008

JSON: /api/v1/satellites/64673 · /tle

For live sub-satellite position, see the globe view (requires WebGL).

§ Visibility from observer

Set your observer location to see the next 7 days of passes ≥ 10°. The values pass through the URL so the page stays shareable.

No JS? Fill the form by hand. The geolocation button needs JavaScript.